Location: Newark
(21.1200°N, 73.4000°E)
Time: 10:35:25
(UTC+00:00)

Vanguard 1 Rocket - Pass Details

Date: 17 January 2021
Orbit: 654 x 4223 km, 34.3° (Epoch: 07 March)

Event Time Altitude Azimuth Distance (km) Brightness Sun altitude
Rises 16:06:14 0° 284° (WNW) 4,685 11.7 -45.7°
Reaches altitude 10° 16:09:01 10° 276° (W) 4,060 11.2 -46.3°
Maximum altitude 16:19:37 40° 211° (SSW) 3,456 10.3 -48.8°
Drops below altitude 10° 16:38:18 10° 150° (SSE) 6,923 11.7 -53.1°
Sets 16:45:10 0° 143° (SE) 8,273 12.1 -54.7°
